Weather History for Bowie, TX

Change the Weather History Date:

Sunday, May 26, 2013

  Actual Average (KSPS) Record (KSPS)
Temperature  
Mean Temperature 78 °F 74 °F  
Max Temperature 86 °F 86 °F 102 °F (1990)
Min Temperature 69 °F 63 °F 51 °F (1946)
Cooling Degree Days 12 10  
Month to date cooling degree days 174  
Year to date cooling degree days 266  
Growing Degree Days 28 (Base 50)    
Moisture  
Dew Point 68 °F    
Average Humidity 78    
Maximum Humidity 100    
Minimum Humidity 48    
Precipitation  
Precipitation 0.00 in 0.13 in 3.98 in (1915)
Month to date precipitation 3.08  
Year to date precipitation 10.78  
Sea Level Pressure  
Sea Level Pressure 30.00 in    
Wind  
Wind Speed 12 mph (SE)    
Max Wind Speed 20 mph    
Max Gust Speed 25 mph    
Visibility 10 miles    
Events      
T = Trace of Precipitation, MM = Missing Value Source: NWS Daily Summary

Daily Weather History Graph

Daily Weather History Graph

Search for Another Location

Airport:

Trip Planner

Search our weather history database for the weather conditions in past years. The results will help you decide how hot, cold, wet, or windy it might be!

Date:

Astronomy

May. 26, 2013 Rise Set
Actual Time 6:23 AM CDT 8:32 PM CDT
Civil Twilight 5:55 AM CDT 9:00 PM CDT
Nautical Twilight 5:21 AM CDT 9:35 PM CDT
Astronomical Twilight 4:44 AM CDT 10:12 PM CDT
Moon 10:22 PM CDT (5/26) 7:53 AM CDT (5/26)
Length of Visible Light 15h 05m
Length of Day
14h 08m
Waning Gibbous, 96% of the Moon is Illuminated
May 26
Waning Gibbous
May 31
Last Quarter
Jun 8
New
Jun 16
First Quarter
Jun 23
Full

Hourly Weather History & Observations

Time (CDT) Temp. Heat Index Dew Point Humidity Pressure Visibility Wind Dir Wind Speed Gust Speed Precip Events Conditions
12:15 AM 69.8 °F - 68.0 °F 94% 30.06 in 10.0 mi SE 13.8 mph 18.4 mph N/A   Clear
12:35 AM 69.8 °F - 68.0 °F 94% 30.06 in 10.0 mi SSE 10.4 mph 19.6 mph N/A   Clear
12:55 AM 69.8 °F - 68.0 °F 94% 30.07 in 10.0 mi SSE 10.4 mph 18.4 mph N/A   Clear
1:15 AM 69.8 °F - 68.0 °F 94% 30.06 in 10.0 mi SSE 12.7 mph 18.4 mph N/A   Clear
1:35 AM 69.8 °F - 69.8 °F 100% 30.06 in 10.0 mi SSE 11.5 mph 18.4 mph N/A   Clear
1:55 AM 69.8 °F - 69.8 °F 100% 30.04 in 10.0 mi SSE 12.7 mph 18.4 mph N/A   Clear
2:15 AM 69.8 °F - 69.8 °F 100% 30.04 in 10.0 mi SSE 10.4 mph 17.3 mph N/A   Clear
2:35 AM 69.8 °F - 69.8 °F 100% 30.03 in 10.0 mi SSE 10.4 mph - N/A   Clear
2:55 AM 69.8 °F - 69.8 °F 100% 30.04 in 10.0 mi SE 6.9 mph 16.1 mph N/A   Clear
3:15 AM 69.8 °F - 69.8 °F 100% 30.04 in 10.0 mi SE 6.9 mph - N/A   Clear
3:35 AM 69.8 °F - 68.0 °F 94% 30.04 in 10.0 mi SE 9.2 mph - N/A   Clear
3:55 AM 69.8 °F - 69.8 °F 100% 30.03 in 10.0 mi SE 10.4 mph 17.3 mph N/A   Clear
4:15 AM 69.8 °F - 69.8 °F 100% 30.02 in 10.0 mi SE 12.7 mph 17.3 mph N/A   Mostly Cloudy
4:35 AM 69.8 °F - 69.8 °F 100% 30.01 in 10.0 mi SE 11.5 mph 18.4 mph N/A   Scattered Clouds
4:55 AM 69.8 °F - 69.8 °F 100% 30.01 in 10.0 mi SE 9.2 mph - N/A   Mostly Cloudy
5:15 AM 69.8 °F - 69.8 °F 100% 30.01 in 10.0 mi SE 10.4 mph 18.4 mph N/A   Overcast
5:35 AM 69.8 °F - 69.8 °F 100% 30.00 in 10.0 mi SE 10.4 mph - N/A   Overcast
5:55 AM 69.8 °F - 69.8 °F 100% 30.00 in 10.0 mi SE 11.5 mph 16.1 mph N/A   Overcast
6:15 AM 69.8 °F - 69.8 °F 100% 30.01 in 10.0 mi SE 11.5 mph 17.3 mph N/A   Overcast
6:35 AM 69.8 °F - 69.8 °F 100% 30.02 in 10.0 mi SE 10.4 mph 17.3 mph N/A   Overcast
6:55 AM 69.8 °F - 69.8 °F 100% 30.03 in 10.0 mi SE 11.5 mph 18.4 mph N/A   Overcast
7:15 AM 69.8 °F - 69.8 °F 100% 30.04 in 10.0 mi SE 11.5 mph 17.3 mph N/A   Overcast
7:35 AM 69.8 °F - 69.8 °F 100% 30.04 in 10.0 mi SE 12.7 mph 18.4 mph N/A   Overcast
7:55 AM 71.6 °F - 69.8 °F 94% 30.04 in 10.0 mi SE 11.5 mph 18.4 mph N/A   Overcast
8:15 AM 71.6 °F - 69.8 °F 94% 30.04 in 10.0 mi SE 10.4 mph 18.4 mph N/A   Overcast
8:35 AM 71.6 °F - 69.8 °F 94% 30.04 in 10.0 mi SE 13.8 mph - N/A   Overcast
8:55 AM 71.6 °F - 69.8 °F 94% 30.05 in 10.0 mi SE 11.5 mph 21.9 mph N/A   Overcast
9:15 AM 73.4 °F - 69.8 °F 88% 30.05 in 10.0 mi SE 12.7 mph 18.4 mph N/A   Overcast
9:35 AM 73.4 °F - 68.0 °F 83% 30.05 in 10.0 mi SE 11.5 mph 20.7 mph N/A   Overcast
9:55 AM 73.4 °F - 68.0 °F 83% 30.05 in 10.0 mi SE 13.8 mph 18.4 mph N/A   Overcast
10:15 AM 73.4 °F - 68.0 °F 83% 30.06 in 10.0 mi SE 11.5 mph 16.1 mph N/A   Overcast
10:35 AM 73.4 °F - 68.0 °F 83% 30.06 in 10.0 mi SE 15.0 mph - N/A   Overcast
10:55 AM 75.2 °F - 68.0 °F 78% 30.05 in 10.0 mi SE 11.5 mph 20.7 mph N/A   Overcast
11:15 AM 77.0 °F - 68.0 °F 74% 30.05 in 10.0 mi SE 15.0 mph 21.9 mph N/A   Overcast
11:35 AM 78.8 °F - 68.0 °F 69% 30.04 in 10.0 mi SE 11.5 mph 20.7 mph N/A   Overcast
11:55 AM 78.8 °F - 66.2 °F 65% 30.04 in 10.0 mi SSE 15.0 mph 19.6 mph N/A   Overcast
12:15 PM 78.8 °F - 68.0 °F 69% 30.04 in 10.0 mi SE 10.4 mph 18.4 mph N/A   Overcast
12:35 PM 78.8 °F - 68.0 °F 69% 30.04 in 10.0 mi SE 13.8 mph 20.7 mph N/A   Overcast
12:55 PM 80.6 °F 83.2 °F 68.0 °F 65% 30.04 in 10.0 mi SSE 11.5 mph 21.9 mph N/A   Overcast
1:15 PM 78.8 °F - 66.2 °F 65% 30.04 in 10.0 mi SSE 10.4 mph 16.1 mph N/A   Overcast
1:35 PM 80.6 °F 83.2 °F 68.0 °F 65% 30.04 in 10.0 mi SSE 13.8 mph - N/A   Overcast
1:55 PM 80.6 °F 83.2 °F 68.0 °F 65% 30.02 in 10.0 mi SE 13.8 mph 20.7 mph N/A   Overcast
2:15 PM 82.4 °F 85.4 °F 68.0 °F 62% 30.02 in 10.0 mi SE 12.7 mph 18.4 mph N/A   Overcast
2:35 PM 82.4 °F 85.4 °F 68.0 °F 62% 30.00 in 10.0 mi SE 16.1 mph 23.0 mph N/A   Mostly Cloudy
2:55 PM 84.2 °F 87.3 °F 68.0 °F 58% 29.99 in 10.0 mi SE 13.8 mph 21.9 mph N/A   Mostly Cloudy
3:15 PM 84.2 °F 87.3 °F 68.0 °F 58% 29.98 in 10.0 mi SE 15.0 mph 25.3 mph N/A   Scattered Clouds
3:35 PM 84.2 °F 86.6 °F 66.2 °F 55% 29.97 in 10.0 mi SE 17.3 mph 24.2 mph N/A   Scattered Clouds
3:55 PM 86.0 °F 89.4 °F 68.0 °F 55% 29.97 in 10.0 mi ESE 13.8 mph 20.7 mph N/A   Scattered Clouds
4:15 PM 84.2 °F 86.6 °F 66.2 °F 55% 29.96 in 10.0 mi SSE 15.0 mph 21.9 mph N/A   Mostly Cloudy
4:35 PM 86.0 °F 88.2 °F 66.2 °F 51% 29.95 in 10.0 mi SSE 17.3 mph 24.2 mph N/A   Scattered Clouds
4:55 PM 86.0 °F 88.2 °F 66.2 °F 51% 29.94 in 10.0 mi SSE 13.8 mph 24.2 mph N/A   Scattered Clouds
5:15 PM 86.0 °F 87.3 °F 64.4 °F 48% 29.93 in 10.0 mi SE 16.1 mph 24.2 mph N/A   Scattered Clouds
5:35 PM 86.0 °F 88.2 °F 66.2 °F 51% 29.93 in 10.0 mi SE 19.6 mph 24.2 mph N/A   Clear
5:55 PM 86.0 °F 88.2 °F 66.2 °F 51% 29.92 in 10.0 mi SSE 11.5 mph 24.2 mph N/A   Scattered Clouds
6:15 PM 86.0 °F 88.2 °F 66.2 °F 51% 29.91 in 10.0 mi SE 13.8 mph 20.7 mph N/A   Clear
6:35 PM 86.0 °F 87.3 °F 64.4 °F 48% 29.90 in 10.0 mi SSE 13.8 mph 23.0 mph N/A   Clear
6:55 PM 84.2 °F 86.6 °F 66.2 °F 55% 29.90 in 10.0 mi SE 12.7 mph 20.7 mph N/A   Clear
7:15 PM 84.2 °F 86.6 °F 66.2 °F 55% 29.90 in 10.0 mi SE 13.8 mph 20.7 mph N/A   Scattered Clouds
7:35 PM 82.4 °F 84.6 °F 66.2 °F 58% 29.91 in 10.0 mi SE 10.4 mph 19.6 mph N/A   Scattered Clouds
7:55 PM 80.6 °F 82.7 °F 66.2 °F 61% 29.91 in 10.0 mi SE 10.4 mph 18.4 mph N/A   Scattered Clouds
8:15 PM 80.6 °F 82.7 °F 66.2 °F 61% 29.91 in 10.0 mi SE 9.2 mph 20.7 mph N/A   Clear
8:35 PM 78.8 °F - 66.2 °F 65% 29.91 in 10.0 mi SE 10.4 mph - N/A   Clear
8:55 PM 78.8 °F - 66.2 °F 65% 29.92 in 10.0 mi SE 8.1 mph - N/A   Clear
9:15 PM 78.8 °F - 66.2 °F 65% 29.93 in 10.0 mi SE 6.9 mph - N/A   Clear
9:35 PM 77.0 °F - 68.0 °F 74% 29.94 in 10.0 mi SE 9.2 mph - N/A   Clear
9:55 PM 77.0 °F - 68.0 °F 74% 29.95 in 10.0 mi SE 8.1 mph - N/A   Clear
10:15 PM 77.0 °F - 68.0 °F 74% 29.96 in 10.0 mi SE 8.1 mph - N/A   Clear
10:35 PM 77.0 °F - 68.0 °F 74% 29.96 in 10.0 mi SE 11.5 mph - N/A   Mostly Cloudy
10:55 PM 77.0 °F - 68.0 °F 74% 29.97 in 10.0 mi SE 9.2 mph - N/A   Scattered Clouds
11:15 PM 77.0 °F - 68.0 °F 74% 29.97 in 10.0 mi SE 10.4 mph 16.1 mph N/A   Clear
11:35 PM 77.0 °F - 68.0 °F 74% 29.97 in 10.0 mi SE 11.5 mph 17.3 mph N/A   Clear
11:55 PM 75.2 °F - 66.2 °F 73% 29.97 in 10.0 mi SE 9.2 mph - N/A   Clear